Year,Month,Day,Hour,Minute,Value (Times are PST for temperature in C)
2020,08,30,00,00,14.40
2020,08,30,00,01,14.40
2020,08,30,00,02,14.40
2020,08,30,00,03,14.40
2020,08,30,00,04,14.40
2020,08,30,00,05,14.40
2020,08,30,00,06,14.40
2020,08,30,00,07,14.40
2020,08,30,00,08,14.40
2020,08,30,00,09,14.30
2020,08,30,00,10,14.30
2020,08,30,00,11,14.30
2020,08,30,00,12,14.30
2020,08,30,00,13,14.30
2020,08,30,00,14,14.30
2020,08,30,00,15,14.30
2020,08,30,00,16,14.30
2020,08,30,00,17,14.30
2020,08,30,00,18,14.20
2020,08,30,00,19,14.20
2020,08,30,00,20,14.20
2020,08,30,00,21,14.20
2020,08,30,00,22,14.20
2020,08,30,00,23,14.20
2020,08,30,00,24,14.10
2020,08,30,00,25,14.20
2020,08,30,00,26,14.20
2020,08,30,00,27,14.20
2020,08,30,00,28,14.20
2020,08,30,00,29,14.20
2020,08,30,00,30,14.20
2020,08,30,00,31,14.20
2020,08,30,00,32,14.20
2020,08,30,00,33,14.30
2020,08,30,00,34,14.30
2020,08,30,00,35,14.30
2020,08,30,00,36,14.30
2020,08,30,00,37,14.30
2020,08,30,00,38,14.30
2020,08,30,00,39,14.20
2020,08,30,00,40,14.20
2020,08,30,00,41,14.20
2020,08,30,00,42,14.20
2020,08,30,00,43,14.20
2020,08,30,00,44,14.20
2020,08,30,00,45,14.20
2020,08,30,00,46,14.20
2020,08,30,00,47,14.20
2020,08,30,00,48,14.20
2020,08,30,00,49,14.20
2020,08,30,00,50,14.20
2020,08,30,00,51,14.10
2020,08,30,00,52,14.10
2020,08,30,00,53,14.10
2020,08,30,00,54,14.10
2020,08,30,00,55,14.10
2020,08,30,00,56,14.10
2020,08,30,00,57,14.10
2020,08,30,00,58,14.10
2020,08,30,00,59,14.10
2020,08,30,01,00,14.00
2020,08,30,01,01,14.00
2020,08,30,01,02,14.00
2020,08,30,01,03,14.00
2020,08,30,01,04,14.00
2020,08,30,01,05,13.90
2020,08,30,01,06,13.90
2020,08,30,01,07,13.90
2020,08,30,01,08,13.90
2020,08,30,01,09,13.90
2020,08,30,01,10,13.90
2020,08,30,01,11,13.80
2020,08,30,01,12,13.80
2020,08,30,01,13,13.80
2020,08,30,01,14,13.80
2020,08,30,01,15,13.80
2020,08,30,01,16,13.80
2020,08,30,01,17,13.70
2020,08,30,01,18,13.70
2020,08,30,01,19,13.70
2020,08,30,01,20,13.70
2020,08,30,01,21,13.60
2020,08,30,01,22,13.60
2020,08,30,01,23,13.60
2020,08,30,01,24,13.50
2020,08,30,01,25,13.50
2020,08,30,01,26,13.40
2020,08,30,01,27,13.40
2020,08,30,01,28,13.40
2020,08,30,01,29,13.30
2020,08,30,01,30,13.30
2020,08,30,01,31,13.30
2020,08,30,01,32,13.30
2020,08,30,01,33,13.30
2020,08,30,01,34,13.30
2020,08,30,01,35,13.30
2020,08,30,01,36,13.20
2020,08,30,01,37,13.20
2020,08,30,01,38,13.20
2020,08,30,01,39,13.20
2020,08,30,01,40,13.20
2020,08,30,01,41,13.20
2020,08,30,01,42,13.20
2020,08,30,01,43,13.20
2020,08,30,01,44,13.10
2020,08,30,01,45,13.10
2020,08,30,01,46,13.10
2020,08,30,01,47,13.10
2020,08,30,01,48,13.10
2020,08,30,01,49,13.10
2020,08,30,01,50,13.10
2020,08,30,01,51,13.10
2020,08,30,01,52,13.10
2020,08,30,01,53,13.10
2020,08,30,01,54,13.00
2020,08,30,01,55,13.00
2020,08,30,01,56,13.00
2020,08,30,01,57,12.90
2020,08,30,01,58,12.90
2020,08,30,01,59,12.80
2020,08,30,02,00,12.80
2020,08,30,02,01,12.80
2020,08,30,02,02,12.70
2020,08,30,02,03,12.70
2020,08,30,02,04,12.60
2020,08,30,02,05,12.60
2020,08,30,02,06,12.50
2020,08,30,02,07,12.40
2020,08,30,02,08,12.40
2020,08,30,02,09,12.40
2020,08,30,02,10,12.30
2020,08,30,02,11,12.30
2020,08,30,02,12,12.30
2020,08,30,02,13,12.30
2020,08,30,02,14,12.20
2020,08,30,02,15,12.20
2020,08,30,02,16,12.20
2020,08,30,02,17,12.20
2020,08,30,02,18,12.20
2020,08,30,02,19,12.30
2020,08,30,02,20,12.40
2020,08,30,02,21,12.40
2020,08,30,02,22,12.50
2020,08,30,02,23,12.60
2020,08,30,02,24,12.60
2020,08,30,02,25,12.70
2020,08,30,02,26,12.80
2020,08,30,02,27,12.80
2020,08,30,02,28,12.80
2020,08,30,02,29,12.90
2020,08,30,02,30,12.90
2020,08,30,02,31,12.90
2020,08,30,02,32,12.90
2020,08,30,02,33,12.90
2020,08,30,02,34,12.90
2020,08,30,02,35,12.90
2020,08,30,02,36,12.90
2020,08,30,02,37,12.90
2020,08,30,02,38,12.90
2020,08,30,02,39,12.90
2020,08,30,02,40,12.90
2020,08,30,02,41,12.90
2020,08,30,02,42,12.90
2020,08,30,02,43,12.90
2020,08,30,02,44,12.80
2020,08,30,02,45,12.80
2020,08,30,02,46,12.80
2020,08,30,02,47,12.80
2020,08,30,02,48,12.80
2020,08,30,02,49,12.90
2020,08,30,02,50,12.90
2020,08,30,02,51,12.80
2020,08,30,02,52,12.80
2020,08,30,02,53,12.80
2020,08,30,02,54,12.80
2020,08,30,02,55,12.80
2020,08,30,02,56,12.80
2020,08,30,02,57,12.70
2020,08,30,02,58,12.70
2020,08,30,02,59,12.70
2020,08,30,03,00,12.70
2020,08,30,03,01,12.60
2020,08,30,03,02,12.60
2020,08,30,03,03,12.60
2020,08,30,03,04,12.60
2020,08,30,03,05,12.60
2020,08,30,03,06,12.60
2020,08,30,03,07,12.50
2020,08,30,03,08,12.50
2020,08,30,03,09,12.40
2020,08,30,03,10,12.40
2020,08,30,03,11,12.40
2020,08,30,03,12,12.30
2020,08,30,03,13,12.30
2020,08,30,03,14,12.30
2020,08,30,03,15,12.30
2020,08,30,03,16,12.20
2020,08,30,03,17,12.20
2020,08,30,03,18,12.20
2020,08,30,03,19,12.20
2020,08,30,03,20,12.20
2020,08,30,03,21,12.20
2020,08,30,03,22,12.20
2020,08,30,03,23,12.20
2020,08,30,03,24,12.20
2020,08,30,03,25,12.20
2020,08,30,03,26,12.20
2020,08,30,03,27,12.20
2020,08,30,03,28,12.20
2020,08,30,03,29,12.20
2020,08,30,03,30,12.20
2020,08,30,03,31,12.20
2020,08,30,03,32,12.20
2020,08,30,03,33,12.10
2020,08,30,03,34,12.10
2020,08,30,03,35,12.10
2020,08,30,03,36,12.00
2020,08,30,03,37,12.00
2020,08,30,03,38,11.90
2020,08,30,03,39,11.90
2020,08,30,03,40,11.80
2020,08,30,03,41,11.80
2020,08,30,03,42,11.80
2020,08,30,03,43,11.70
2020,08,30,03,44,11.70
2020,08,30,03,45,11.60
2020,08,30,03,46,11.60
2020,08,30,03,47,11.50
2020,08,30,03,48,11.50
2020,08,30,03,49,11.40
2020,08,30,03,50,11.40
2020,08,30,03,51,11.30
2020,08,30,03,52,11.30
2020,08,30,03,53,11.30
2020,08,30,03,54,11.20
2020,08,30,03,55,11.10
2020,08,30,03,56,11.10
2020,08,30,03,57,11.00
2020,08,30,03,58,11.00
2020,08,30,03,59,10.90
2020,08,30,04,00,10.90
2020,08,30,04,01,10.90
2020,08,30,04,02,10.80
2020,08,30,04,03,10.80
2020,08,30,04,04,10.70
2020,08,30,04,05,10.70
2020,08,30,04,06,10.70
2020,08,30,04,07,10.60
2020,08,30,04,08,10.60
2020,08,30,04,09,10.50
2020,08,30,04,10,10.50
2020,08,30,04,11,10.40
2020,08,30,04,12,10.30
2020,08,30,04,13,10.30
2020,08,30,04,14,10.20
2020,08,30,04,15,10.20
2020,08,30,04,16,10.20
2020,08,30,04,17,10.10
2020,08,30,04,18,10.10
2020,08,30,04,19,10.00
2020,08,30,04,20,10.00
2020,08,30,04,21,10.00
2020,08,30,04,22,9.90
2020,08,30,04,23,9.90
2020,08,30,04,24,9.90
2020,08,30,04,25,9.90
2020,08,30,04,26,9.90
2020,08,30,04,27,9.90
2020,08,30,04,28,9.90
2020,08,30,04,29,9.80
2020,08,30,04,30,9.80
2020,08,30,04,31,9.80
2020,08,30,04,32,9.80
2020,08,30,04,33,9.70
2020,08,30,04,34,9.70
2020,08,30,04,35,9.70
2020,08,30,04,36,9.70
2020,08,30,04,37,9.70
2020,08,30,04,38,9.70
2020,08,30,04,39,9.70
2020,08,30,04,40,9.70
2020,08,30,04,41,9.70
2020,08,30,04,42,9.70
2020,08,30,04,43,9.70
2020,08,30,04,44,9.70
2020,08,30,04,45,9.70
2020,08,30,04,46,9.70
2020,08,30,04,47,9.70
2020,08,30,04,48,9.70
2020,08,30,04,49,9.70
2020,08,30,04,50,9.70
2020,08,30,04,51,9.70
2020,08,30,04,52,9.70
2020,08,30,04,53,9.70
2020,08,30,04,54,9.60
2020,08,30,04,55,9.60
2020,08,30,04,56,9.60
2020,08,30,04,57,9.50
2020,08,30,04,58,9.50
2020,08,30,04,59,9.40
2020,08,30,05,00,9.40
2020,08,30,05,01,9.40
2020,08,30,05,02,9.30
2020,08,30,05,03,9.30
2020,08,30,05,04,9.30
2020,08,30,05,05,9.30
2020,08,30,05,06,9.30
2020,08,30,05,07,9.30
2020,08,30,05,08,9.30
2020,08,30,05,09,9.30
2020,08,30,05,10,9.30
2020,08,30,05,11,9.30
2020,08,30,05,12,9.30
2020,08,30,05,13,9.30
2020,08,30,05,14,9.40
2020,08,30,05,15,9.40
2020,08,30,05,16,9.40
2020,08,30,05,17,9.40
2020,08,30,05,18,9.40
2020,08,30,05,19,9.40
2020,08,30,05,20,9.40
2020,08,30,05,21,9.40
2020,08,30,05,22,9.40
2020,08,30,05,23,9.40
2020,08,30,05,24,9.40
2020,08,30,05,25,9.40
2020,08,30,05,26,9.40
2020,08,30,05,27,9.40
2020,08,30,05,28,9.50
2020,08,30,05,29,9.50
2020,08,30,05,30,9.50
2020,08,30,05,31,9.50
2020,08,30,05,32,9.60
2020,08,30,05,33,9.60
2020,08,30,05,34,9.60
2020,08,30,05,35,9.70
2020,08,30,05,36,9.70
2020,08,30,05,37,9.70
2020,08,30,05,38,9.70
2020,08,30,05,39,9.70
2020,08,30,05,40,9.70
2020,08,30,05,41,9.70
2020,08,30,05,42,9.80
2020,08,30,05,43,9.80
2020,08,30,05,44,9.80
2020,08,30,05,45,9.80
2020,08,30,05,46,9.80
2020,08,30,05,47,9.80
2020,08,30,05,48,9.80
2020,08,30,05,49,9.80
2020,08,30,05,50,9.80
2020,08,30,05,51,9.80
2020,08,30,05,52,9.80
2020,08,30,05,53,9.80
2020,08,30,05,54,9.80
2020,08,30,05,55,9.80
2020,08,30,05,56,9.80
2020,08,30,05,57,9.80
2020,08,30,05,58,9.70
2020,08,30,05,59,9.70
2020,08,30,06,00,9.70
2020,08,30,06,01,9.70
2020,08,30,06,02,9.70
2020,08,30,06,03,9.70
2020,08,30,06,04,9.70
2020,08,30,06,05,9.70
2020,08,30,06,06,9.70
2020,08,30,06,07,9.70
2020,08,30,06,08,9.70
2020,08,30,06,09,9.70
2020,08,30,06,10,9.70
2020,08,30,06,11,9.80
2020,08,30,06,12,9.80
2020,08,30,06,13,9.90
2020,08,30,06,14,9.90
2020,08,30,06,15,9.90
2020,08,30,06,16,9.90
2020,08,30,06,17,10.00
2020,08,30,06,18,10.00
2020,08,30,06,19,10.00
2020,08,30,06,20,10.00
2020,08,30,06,21,10.00
2020,08,30,06,22,10.00
2020,08,30,06,23,10.10
2020,08,30,06,24,10.10
2020,08,30,06,25,10.10
2020,08,30,06,26,10.20
2020,08,30,06,27,10.30
2020,08,30,06,28,10.30
2020,08,30,06,29,10.30
2020,08,30,06,30,10.30
2020,08,30,06,31,10.40
2020,08,30,06,32,10.40
2020,08,30,06,33,10.40
2020,08,30,06,34,10.40
2020,08,30,06,35,10.40
2020,08,30,06,36,10.40
2020,08,30,06,37,10.40
2020,08,30,06,38,10.30
2020,08,30,06,39,10.30
2020,08,30,06,40,10.30
2020,08,30,06,41,10.30
2020,08,30,06,42,10.30
2020,08,30,06,43,10.30
2020,08,30,06,44,10.30
2020,08,30,06,45,10.30
2020,08,30,06,46,10.30
2020,08,30,06,47,10.30
2020,08,30,06,48,10.30
2020,08,30,06,49,10.30
2020,08,30,06,50,10.30
2020,08,30,06,51,10.30
2020,08,30,06,52,10.30
2020,08,30,06,53,10.30
2020,08,30,06,54,10.30
2020,08,30,06,55,10.40
2020,08,30,06,56,10.40
2020,08,30,06,57,10.40
2020,08,30,06,58,10.40
2020,08,30,06,59,10.40
2020,08,30,07,00,10.50
2020,08,30,07,01,10.50
2020,08,30,07,02,10.50
2020,08,30,07,03,10.60
2020,08,30,07,04,10.60
2020,08,30,07,05,10.60
2020,08,30,07,06,10.60
2020,08,30,07,07,10.70
2020,08,30,07,08,10.70
2020,08,30,07,09,10.70
2020,08,30,07,10,10.70
2020,08,30,07,11,10.80
2020,08,30,07,12,10.80
2020,08,30,07,13,10.80
2020,08,30,07,14,10.80
2020,08,30,07,15,10.80
2020,08,30,07,16,10.90
2020,08,30,07,17,10.90
2020,08,30,07,18,11.00
2020,08,30,07,19,11.00
2020,08,30,07,20,11.10
2020,08,30,07,21,11.10
2020,08,30,07,22,11.20
2020,08,30,07,23,11.20
2020,08,30,07,24,11.30
2020,08,30,07,25,11.30
2020,08,30,07,26,11.40
2020,08,30,07,27,11.40
2020,08,30,07,28,11.40
2020,08,30,07,29,11.50
2020,08,30,07,30,11.50
2020,08,30,07,31,11.50
2020,08,30,07,32,11.50
2020,08,30,07,33,11.50
2020,08,30,07,34,11.50
2020,08,30,07,35,11.60
2020,08,30,07,36,11.60
2020,08,30,07,37,11.60
2020,08,30,07,38,11.60
2020,08,30,07,39,11.60
2020,08,30,07,40,11.70
2020,08,30,07,41,11.70
2020,08,30,07,42,11.70
2020,08,30,07,43,11.80
2020,08,30,07,44,11.90
2020,08,30,07,45,11.90
2020,08,30,07,46,12.00
2020,08,30,07,47,12.10
2020,08,30,07,48,12.10
2020,08,30,07,49,12.20
2020,08,30,07,50,12.30
2020,08,30,07,51,12.30
2020,08,30,07,52,12.40
2020,08,30,07,53,12.50
2020,08,30,07,54,12.50
2020,08,30,07,55,12.60
2020,08,30,07,56,12.60
2020,08,30,07,57,12.60
2020,08,30,07,58,12.60
2020,08,30,07,59,12.60
2020,08,30,08,00,12.70
2020,08,30,08,01,12.70
2020,08,30,08,02,12.70
2020,08,30,08,03,12.70
2020,08,30,08,04,12.70
2020,08,30,08,05,12.70
2020,08,30,08,06,12.70
2020,08,30,08,07,12.70
2020,08,30,08,08,12.80
2020,08,30,08,09,12.80
2020,08,30,08,10,12.80
2020,08,30,08,11,12.80
2020,08,30,08,12,12.80
2020,08,30,08,13,12.80
2020,08,30,08,14,12.90
2020,08,30,08,15,12.90
2020,08,30,08,16,13.00
2020,08,30,08,17,13.00
2020,08,30,08,18,13.00
2020,08,30,08,19,13.10
2020,08,30,08,20,13.10
2020,08,30,08,21,13.20
2020,08,30,08,22,13.20
2020,08,30,08,23,13.20
2020,08,30,08,24,13.30
2020,08,30,08,25,13.30
2020,08,30,08,26,13.30
2020,08,30,08,27,13.40
2020,08,30,08,28,13.40
2020,08,30,08,29,13.40
2020,08,30,08,30,13.50
2020,08,30,08,31,13.60
2020,08,30,08,32,13.60
2020,08,30,08,33,13.60
2020,08,30,08,34,13.70
2020,08,30,08,35,13.70
2020,08,30,08,36,13.80
2020,08,30,08,37,13.80
2020,08,30,08,38,13.90
2020,08,30,08,39,13.90
2020,08,30,08,40,14.00
2020,08,30,08,41,14.10
2020,08,30,08,42,14.20
2020,08,30,08,43,14.20
2020,08,30,08,44,14.30
2020,08,30,08,45,14.30
2020,08,30,08,46,14.30
2020,08,30,08,47,14.40
2020,08,30,08,48,14.50
2020,08,30,08,49,14.50
2020,08,30,08,50,14.60
2020,08,30,08,51,14.70
2020,08,30,08,52,14.70
2020,08,30,08,53,14.70
2020,08,30,08,54,14.70
2020,08,30,08,55,14.70
2020,08,30,08,56,14.70
2020,08,30,08,57,14.80
2020,08,30,08,58,14.80
2020,08,30,08,59,14.80
2020,08,30,09,00,14.80
2020,08,30,09,01,14.80
2020,08,30,09,02,14.80
2020,08,30,09,03,14.90
2020,08,30,09,04,14.90
2020,08,30,09,05,14.90
2020,08,30,09,06,14.90
2020,08,30,09,07,15.00
2020,08,30,09,08,15.00
2020,08,30,09,09,15.10
2020,08,30,09,10,15.10
2020,08,30,09,11,15.10
2020,08,30,09,12,15.10
2020,08,30,09,13,15.10
2020,08,30,09,14,15.10
2020,08,30,09,15,15.20
2020,08,30,09,16,15.20
2020,08,30,09,17,15.20
2020,08,30,09,18,15.20
2020,08,30,09,19,15.20
2020,08,30,09,20,15.20
2020,08,30,09,21,15.20
2020,08,30,09,22,15.20
2020,08,30,09,23,15.20
2020,08,30,09,24,15.20
2020,08,30,09,25,15.20
2020,08,30,09,26,15.20
2020,08,30,09,27,15.30
2020,08,30,09,28,15.40
2020,08,30,09,29,15.40
2020,08,30,09,30,15.50
2020,08,30,09,31,15.60
2020,08,30,09,32,15.70
2020,08,30,09,33,15.80
2020,08,30,09,34,15.80
2020,08,30,09,35,15.90
2020,08,30,09,36,15.90
2020,08,30,09,37,16.00
2020,08,30,09,38,16.00
2020,08,30,09,39,16.00
2020,08,30,09,40,16.00
2020,08,30,09,41,16.00
2020,08,30,09,42,16.00
2020,08,30,09,43,15.90
2020,08,30,09,44,15.90
2020,08,30,09,45,15.90
2020,08,30,09,46,15.90
2020,08,30,09,47,15.90
2020,08,30,09,48,15.90
2020,08,30,09,49,15.90
2020,08,30,09,50,15.90
2020,08,30,09,51,15.90
2020,08,30,09,52,15.80
2020,08,30,09,53,15.80
2020,08,30,09,54,15.80
2020,08,30,09,55,15.80
2020,08,30,09,56,15.80
2020,08,30,09,57,15.90
2020,08,30,09,58,15.90
2020,08,30,09,59,15.90
2020,08,30,10,00,15.90
2020,08,30,10,01,15.90
2020,08,30,10,02,15.80
2020,08,30,10,03,15.70
2020,08,30,10,04,15.70
2020,08,30,10,05,15.70
2020,08,30,10,06,15.60
2020,08,30,10,07,15.60
2020,08,30,10,08,15.60
2020,08,30,10,09,15.70
2020,08,30,10,10,15.70
2020,08,30,10,11,15.80
2020,08,30,10,12,15.80
2020,08,30,10,13,15.90
2020,08,30,10,14,15.90
2020,08,30,10,15,16.00
2020,08,30,10,16,16.00
2020,08,30,10,17,16.10
2020,08,30,10,18,16.20
2020,08,30,10,19,16.20
2020,08,30,10,20,16.20
2020,08,30,10,21,16.20
2020,08,30,10,22,16.30
2020,08,30,10,23,16.30
2020,08,30,10,24,16.30
2020,08,30,10,25,16.30
2020,08,30,10,26,16.30
2020,08,30,10,27,16.30
2020,08,30,10,28,16.40
2020,08,30,10,29,16.40
2020,08,30,10,30,16.40
2020,08,30,10,31,16.40
2020,08,30,10,32,16.40
2020,08,30,10,33,16.40
2020,08,30,10,34,16.40
2020,08,30,10,35,16.30
2020,08,30,10,36,16.30
2020,08,30,10,37,16.30
2020,08,30,10,38,16.30
2020,08,30,10,39,16.20
2020,08,30,10,40,16.20
2020,08,30,10,41,16.20
2020,08,30,10,42,16.20
2020,08,30,10,43,16.20
2020,08,30,10,44,16.20
2020,08,30,10,45,16.20
2020,08,30,10,46,16.20
2020,08,30,10,47,16.20
2020,08,30,10,48,16.20
2020,08,30,10,49,16.20
2020,08,30,10,50,16.20
2020,08,30,10,51,16.20
2020,08,30,10,52,16.20
2020,08,30,10,53,16.20
2020,08,30,10,54,16.20
2020,08,30,10,55,16.20
2020,08,30,10,56,16.20
2020,08,30,10,57,16.30
2020,08,30,10,58,16.30
2020,08,30,10,59,16.30
2020,08,30,11,00,16.30
2020,08,30,11,01,16.30
2020,08,30,11,02,16.30
2020,08,30,11,03,16.30
2020,08,30,11,04,16.40
2020,08,30,11,05,16.40
2020,08,30,11,06,16.40
2020,08,30,11,07,16.40
2020,08,30,11,08,16.40
2020,08,30,11,09,16.40
2020,08,30,11,10,16.30
2020,08,30,11,11,16.30
2020,08,30,11,12,16.30
2020,08,30,11,13,16.30
2020,08,30,11,14,16.30
2020,08,30,11,15,16.20
2020,08,30,11,16,16.10
2020,08,30,11,17,16.00
2020,08,30,11,18,15.90
2020,08,30,11,19,15.80
2020,08,30,11,20,15.80
2020,08,30,11,21,15.80
2020,08,30,11,22,15.90
2020,08,30,11,23,15.90
2020,08,30,11,24,16.00
2020,08,30,11,25,16.10
2020,08,30,11,26,16.10
2020,08,30,11,27,16.20
2020,08,30,11,28,16.20
2020,08,30,11,29,16.20
2020,08,30,11,30,16.30
2020,08,30,11,31,16.30
2020,08,30,11,32,16.30
2020,08,30,11,33,16.40
2020,08,30,11,34,16.40
2020,08,30,11,35,16.40
2020,08,30,11,36,16.40
2020,08,30,11,37,16.40
2020,08,30,11,38,16.40
2020,08,30,11,39,16.40
2020,08,30,11,40,16.30
2020,08,30,11,41,16.30
2020,08,30,11,42,16.40
2020,08,30,11,43,16.40
2020,08,30,11,44,16.40
2020,08,30,11,45,16.30
2020,08,30,11,46,16.30
2020,08,30,11,47,16.20
2020,08,30,11,48,16.20
2020,08,30,11,49,16.20
2020,08,30,11,50,16.20
2020,08,30,11,51,16.20
2020,08,30,11,52,16.20
2020,08,30,11,53,16.20
2020,08,30,11,54,16.20
2020,08,30,11,55,16.20
2020,08,30,11,56,16.30
2020,08,30,11,57,16.30
2020,08,30,11,58,16.30
2020,08,30,11,59,16.40
2020,08,30,12,00,16.40
2020,08,30,12,01,16.50
2020,08,30,12,02,16.60
2020,08,30,12,03,16.60
2020,08,30,12,04,16.70
2020,08,30,12,05,16.70
2020,08,30,12,06,16.70
2020,08,30,12,07,16.70
2020,08,30,12,08,16.70
2020,08,30,12,09,16.80
2020,08,30,12,10,16.80
2020,08,30,12,11,16.70
2020,08,30,12,12,16.70
2020,08,30,12,13,16.60
2020,08,30,12,14,16.60
2020,08,30,12,15,16.60
2020,08,30,12,16,16.60
2020,08,30,12,17,16.60
2020,08,30,12,18,16.60
2020,08,30,12,19,16.60
2020,08,30,12,20,16.60
2020,08,30,12,21,16.60
2020,08,30,12,22,16.60
2020,08,30,12,23,16.60
2020,08,30,12,24,16.60
2020,08,30,12,25,16.60
2020,08,30,12,26,16.60
2020,08,30,12,27,16.60
2020,08,30,12,28,16.70
2020,08,30,12,29,16.70
2020,08,30,12,30,16.70
2020,08,30,12,31,16.70
2020,08,30,12,32,16.70
2020,08,30,12,33,16.70
2020,08,30,12,34,16.70
2020,08,30,12,35,16.70
2020,08,30,12,36,16.80
2020,08,30,12,37,16.80
2020,08,30,12,38,16.80
2020,08,30,12,39,16.70
2020,08,30,12,40,16.70
2020,08,30,12,41,16.70
2020,08,30,12,42,16.60
2020,08,30,12,43,16.60
2020,08,30,12,44,16.50
2020,08,30,12,45,16.50
2020,08,30,12,46,16.50
2020,08,30,12,47,16.50
2020,08,30,12,48,16.40
2020,08,30,12,49,16.40
2020,08,30,12,50,16.40
2020,08,30,12,51,16.40
2020,08,30,12,52,16.40
2020,08,30,12,53,16.40
2020,08,30,12,54,16.40
2020,08,30,12,55,16.50
2020,08,30,12,56,16.50
2020,08,30,12,57,16.50
2020,08,30,12,58,16.50
2020,08,30,12,59,16.50
2020,08,30,13,00,16.50
2020,08,30,13,01,16.50
2020,08,30,13,02,16.40
2020,08,30,13,03,16.50
2020,08,30,13,04,16.40
2020,08,30,13,05,16.40
2020,08,30,13,06,16.40
2020,08,30,13,07,16.40
2020,08,30,13,08,16.40
2020,08,30,13,09,16.40
2020,08,30,13,10,16.40
2020,08,30,13,11,16.40
2020,08,30,13,12,16.40
2020,08,30,13,13,16.30
2020,08,30,13,14,16.30
2020,08,30,13,15,16.30
2020,08,30,13,16,16.30
2020,08,30,13,17,16.30
2020,08,30,13,18,16.20
2020,08,30,13,19,16.20
2020,08,30,13,20,16.20
2020,08,30,13,21,16.20
2020,08,30,13,22,16.10
2020,08,30,13,23,16.10
2020,08,30,13,24,16.10
2020,08,30,13,25,16.10
2020,08,30,13,26,16.10
2020,08,30,13,27,16.00
2020,08,30,13,28,16.10
2020,08,30,13,29,16.00
2020,08,30,13,30,16.00
2020,08,30,13,31,16.00
2020,08,30,13,32,16.00
2020,08,30,13,33,16.00
2020,08,30,13,34,16.00
2020,08,30,13,35,16.00
2020,08,30,13,36,16.00
2020,08,30,13,37,16.00
2020,08,30,13,38,16.00
2020,08,30,13,39,16.00
2020,08,30,13,40,16.10
2020,08,30,13,41,16.10
2020,08,30,13,42,16.10
2020,08,30,13,43,16.10
2020,08,30,13,44,16.00
2020,08,30,13,45,16.00
2020,08,30,13,46,16.00
2020,08,30,13,47,16.00
2020,08,30,13,48,16.00
2020,08,30,13,49,15.90
2020,08,30,13,50,15.90
2020,08,30,13,51,15.90
2020,08,30,13,52,15.90
2020,08,30,13,53,15.90
2020,08,30,13,54,15.90
2020,08,30,13,55,15.90
2020,08,30,13,56,15.90
2020,08,30,13,57,15.90
2020,08,30,13,58,15.90
2020,08,30,13,59,15.90
2020,08,30,14,00,15.90
2020,08,30,14,01,15.90
2020,08,30,14,02,15.90
2020,08,30,14,03,16.00
2020,08,30,14,04,16.00
2020,08,30,14,05,15.90
2020,08,30,14,06,16.00
2020,08,30,14,07,16.00
2020,08,30,14,08,16.00
2020,08,30,14,09,16.00
2020,08,30,14,10,16.10
2020,08,30,14,11,16.10
2020,08,30,14,12,16.10
2020,08,30,14,13,16.10
2020,08,30,14,14,16.10
2020,08,30,14,15,16.20
2020,08,30,14,16,16.20
2020,08,30,14,17,16.20
2020,08,30,14,18,16.20
2020,08,30,14,19,16.20
2020,08,30,14,20,16.20
2020,08,30,14,21,16.20
2020,08,30,14,22,16.10
2020,08,30,14,23,16.10
2020,08,30,14,24,16.10
2020,08,30,14,25,16.00
2020,08,30,14,26,16.00
2020,08,30,14,27,15.90
2020,08,30,14,28,15.90
2020,08,30,14,29,15.80
2020,08,30,14,30,15.80
2020,08,30,14,31,15.80
2020,08,30,14,32,15.80
2020,08,30,14,33,15.80
2020,08,30,14,34,15.80
2020,08,30,14,35,15.80
2020,08,30,14,36,15.80
2020,08,30,14,37,15.80
2020,08,30,14,38,15.80
2020,08,30,14,39,15.80
2020,08,30,14,40,15.80
2020,08,30,14,41,15.80
2020,08,30,14,42,15.80
2020,08,30,14,43,15.80
2020,08,30,14,44,15.80
2020,08,30,14,45,15.80
2020,08,30,14,46,15.70
2020,08,30,14,47,15.70
2020,08,30,14,48,15.70
2020,08,30,14,49,15.70
2020,08,30,14,50,15.60
2020,08,30,14,51,15.60
2020,08,30,14,52,15.60
2020,08,30,14,53,15.60
2020,08,30,14,54,15.50
2020,08,30,14,55,15.50
2020,08,30,14,56,15.50
2020,08,30,14,57,15.40
2020,08,30,14,58,15.40
2020,08,30,14,59,15.40
2020,08,30,15,00,15.40
2020,08,30,15,01,15.40
2020,08,30,15,02,15.30
2020,08,30,15,03,15.30
2020,08,30,15,04,15.30
2020,08,30,15,05,15.30
2020,08,30,15,06,15.30
2020,08,30,15,07,15.30
2020,08,30,15,08,15.30
2020,08,30,15,09,15.30
2020,08,30,15,10,15.30
2020,08,30,15,11,15.30
2020,08,30,15,12,15.30
2020,08,30,15,13,15.20
2020,08,30,15,14,15.10
2020,08,30,15,15,15.10
2020,08,30,15,16,15.10
2020,08,30,15,17,15.10
2020,08,30,15,18,15.10
2020,08,30,15,19,15.10
2020,08,30,15,20,15.10
2020,08,30,15,21,15.10
2020,08,30,15,22,15.00
2020,08,30,15,23,15.00
2020,08,30,15,24,15.00
2020,08,30,15,25,14.90
2020,08,30,15,26,14.90
2020,08,30,15,27,14.90
2020,08,30,15,28,15.00
2020,08,30,15,29,15.00
2020,08,30,15,30,15.00
2020,08,30,15,31,14.90
2020,08,30,15,32,14.90
2020,08,30,15,33,14.90
2020,08,30,15,34,14.90
2020,08,30,15,35,14.90
2020,08,30,15,36,14.90
2020,08,30,15,37,14.80
2020,08,30,15,38,14.80
2020,08,30,15,39,14.80
2020,08,30,15,40,14.80
2020,08,30,15,41,14.80
2020,08,30,15,42,14.80
2020,08,30,15,43,14.80
2020,08,30,15,44,14.80
2020,08,30,15,45,14.80
2020,08,30,15,46,14.80
2020,08,30,15,47,14.80
2020,08,30,15,48,14.80
2020,08,30,15,49,14.80
2020,08,30,15,50,14.80
2020,08,30,15,51,14.70
2020,08,30,15,52,14.70
2020,08,30,15,53,14.60
2020,08,30,15,54,14.60
2020,08,30,15,55,14.60
2020,08,30,15,56,14.60
2020,08,30,15,57,14.60
2020,08,30,15,58,14.60
2020,08,30,15,59,14.60
2020,08,30,16,00,14.60
2020,08,30,16,01,14.60
2020,08,30,16,02,14.60
2020,08,30,16,03,14.60
2020,08,30,16,04,14.60
2020,08,30,16,05,14.60
2020,08,30,16,06,14.60
2020,08,30,16,07,14.60
2020,08,30,16,08,14.70
2020,08,30,16,09,14.70
2020,08,30,16,10,14.70
2020,08,30,16,11,14.70
2020,08,30,16,12,14.70
2020,08,30,16,13,14.70
2020,08,30,16,14,14.70
2020,08,30,16,15,14.70
2020,08,30,16,16,14.70
2020,08,30,16,17,14.70
2020,08,30,16,18,14.70
2020,08,30,16,19,14.60
2020,08,30,16,20,14.60
2020,08,30,16,21,14.60
2020,08,30,16,22,14.60
2020,08,30,16,23,14.60
2020,08,30,16,24,14.60
2020,08,30,16,25,14.60
2020,08,30,16,26,14.60
2020,08,30,16,27,14.60
2020,08,30,16,28,14.60
2020,08,30,16,29,14.60
2020,08,30,16,30,14.50
2020,08,30,16,31,14.50
2020,08,30,16,32,14.50
2020,08,30,16,33,14.50
2020,08,30,16,34,14.50
2020,08,30,16,35,14.50
2020,08,30,16,36,14.50
2020,08,30,16,37,14.40
2020,08,30,16,38,14.40
2020,08,30,16,39,14.40
2020,08,30,16,40,14.40
2020,08,30,16,41,14.40
2020,08,30,16,42,14.40
2020,08,30,16,43,14.40
2020,08,30,16,44,14.40
2020,08,30,16,45,14.40
2020,08,30,16,46,14.40
2020,08,30,16,47,14.40
2020,08,30,16,48,14.30
2020,08,30,16,49,14.30
2020,08,30,16,50,14.20
2020,08,30,16,51,14.20
2020,08,30,16,52,14.10
2020,08,30,16,53,14.10
2020,08,30,16,54,14.00
2020,08,30,16,55,14.00
2020,08,30,16,56,13.90
2020,08,30,16,57,13.90
2020,08,30,16,58,13.90
2020,08,30,16,59,13.90
2020,08,30,17,00,13.90
2020,08,30,17,01,13.90
2020,08,30,17,02,13.90
2020,08,30,17,03,13.90
2020,08,30,17,04,13.90
2020,08,30,17,05,13.90
2020,08,30,17,06,13.90
2020,08,30,17,07,13.90
2020,08,30,17,08,13.90
2020,08,30,17,09,13.90
2020,08,30,17,10,13.90
2020,08,30,17,11,13.80
2020,08,30,17,12,13.90
2020,08,30,17,13,13.90
2020,08,30,17,14,13.90
2020,08,30,17,15,13.90
2020,08,30,17,16,13.90
2020,08,30,17,17,13.90
2020,08,30,17,18,13.90
2020,08,30,17,19,14.00
2020,08,30,17,20,14.00
2020,08,30,17,21,14.00
2020,08,30,17,22,14.00
2020,08,30,17,23,13.90
2020,08,30,17,24,13.90